[[{"header":{"parameterUnit":"m.s-1","parameterCategory":1,"la1":30.2991,"la2":30.254,"lo1":-89.0895,"lo2":-89.0444,"dy":0.0017,"dx":0.0017,"nx":28,"ny":28,"refTime":"2024-04-03T09:00:00:Z","depth":0,"parameterNumber":2,"parameterNumberName":"U-component_of_WINDS"},"data":[0,0,0,0,0,0,0,0,0,0,0,0,0,0,0,0,0,0,0,0,0,0,0,0,0,0,0,0,0,0,0,0,0,0,0,0,0,0,0,0,0,0,0,0,0,0,0,0,0,0,0,0,0,0,0,0,0,0,5.7688,5.769,0,5.7842,5.7843,5.7845,5.7809,5.7806,5.7804,5.7801,5.7958,5.7965,5.7971,0,0,0,0,0,0,0,0,0,0,0,0,0,5.7365,5.7371,5.7688,5.769,5.7692,5.7841,5.7843,5.7846,5.781,5.7806,5.7803,5.7799,5.7956,5.7964,5.7972,0,0,0,0,0,0,0,0,0,0,0,0,0,5.7511,5.7373,5.7688,5.7692,5.7694,5.7841,5.7844,5.7846,5.7811,5.7806,5.7802,5.7798,5.7953,5.7963,5.7973,5.8125,0,0,5.8005,5.8009,0,0,0,0,0,0,0,0,5.7503,5.7523,5.769,5.7692,5.7695,5.7802,5.7787,5.794,5.7812,5.7766,5.7801,5.7796,5.7909,5.7923,5.7962,5.8132,5.8139,5.8006,5.8012,5.8016,5.8019,0,0,0,0,0,0,0,5.7493,5.7516,5.7749,5.7692,5.7695,5.7687,5.7703,5.7816,5.7861,5.777,5.7768,5.7786,5.791,5.7952,5.7965,5.8141,5.8005,5.8015,5.8021,5.8025,5.8446,5.8451,0,0,0,0,0,0,5.748,5.7508,5.7744,5.7753,5.7586,5.7696,5.7714,5.7772,5.7859,5.7868,5.779,5.7784,5.7936,5.7953,5.797,5.8154,5.8016,5.8026,5.8032,5.8441,5.8447,5.8452,0,0,0,0,0,0,5.7474,5.7502,5.7738,5.763,5.766,5.7706,5.7772,5.7777,5.7819,5.7875,5.7882,5.7824,5.7933,5.7956,5.8087,5.8159,5.8031,5.804,5.8435,5.8443,5.845,5.8523,0,0,0,0,0,0,5.7464,5.7499,5.7557,5.7632,5.7665,5.7852,5.7776,5.7783,5.7837,5.7831,5.7909,5.7917,5.7932,5.8072,5.8097,5.8171,5.8048,5.8429,5.8439,5.8447,5.8515,5.8532,5.8548,0,0,0,0,0,5.7453,5.7572,5.756,5.7589,5.7739,5.7856,5.7875,5.7889,5.7843,5.7901,5.7938,5.7915,5.8148,5.8086,5.8114,5.8192,5.8424,5.8436,5.8447,5.8507,5.8529,5.8547,0,0,0,0,0,0,5.7504,5.7581,5.757,5.7716,5.778,5.785,5.7924,5.7911,5.799,5.7981,5.7994,5.8013,5.8147,5.8183,5.8112,5.8344,5.8279,5.8297,5.8316,5.8337,5.8353,5.8341,5.8057,0,0,0,0,0,5.7532,5.7621,5.7684,5.7807,5.784,5.7877,5.7928,5.7934,5.8,5.8027,5.8072,5.8138,5.8226,5.8283,5.8367,5.852,5.8537,5.8588,5.8605,5.8618,5.8632,5.8717,5.874,5.8489,5.8489,5.8489,0,0,5.7592,5.7645,5.77,5.7819,5.7869,5.7961,5.7899,5.7999,5.8067,5.8042,5.8169,5.8205,5.8279,5.8422,5.8487,5.8456,5.8706,5.8632,5.8642,5.865,5.8731,5.8754,5.8775,5.8497,5.8495,5.8494,0,0,5.7746,5.7796,5.7904,5.7956,5.8032,5.8057,5.8083,5.8155,5.8178,5.8306,5.8289,5.8371,5.8522,5.8576,5.8623,5.8801,5.8783,5.8828,5.8913,5.8995,5.9015,5.9033,5.9096,5.9119,5.8843,5.8843,5.8843,0,5.781,5.7948,5.7961,5.8063,5.8116,5.8098,5.8208,5.8257,5.8358,5.8395,5.8359,5.8549,5.8598,5.8753,5.8797,5.8836,5.8866,5.8818,5.9011,5.9029,5.9046,5.9106,5.913,5.8848,5.8847,5.8847,5.8846,0,5.8022,5.8118,5.8197,5.8294,5.8356,5.8462,5.8491,5.8553,5.8554,5.8582,5.8713,5.8771,5.8867,5.8904,5.8906,5.9061,5.9039,5.9008,5.8942,5.9074,5.9131,5.9155,5.8855,5.8853,5.8851,5.885,0,0,5.8212,5.8317,5.8345,5.839,5.8474,5.8549,5.8654,5.8748,5.8801,5.8871,5.896,5.9089,5.9061,5.9114,5.9122,5.9194,5.9331,5.9153,5.9155,5.9184,5.9506,5.9529,5.9556,5.9321,5.9325,5.9329,5.95,0,5.8374,5.8559,5.8575,5.8741,5.883,5.8815,5.8907,5.8969,5.8999,5.9079,5.9112,5.9203,5.9159,5.9191,5.9262,5.9299,5.9396,5.9288,5.9403,5.9407,5.9384,5.9586,5.961,5.9768,5.9522,5.9526,5.9529,0,5.8587,5.8664,5.884,5.8913,5.8951,5.9033,5.9121,5.9198,5.9268,5.9285,5.9346,5.9344,5.9453,5.9385,5.9535,5.9461,5.951,5.9536,5.9542,5.9553,5.9475,5.9601,5.9819,5.9843,5.9564,5.9562,5.9559,0,5.8707,5.8855,5.898,5.9018,5.9107,5.9165,5.9204,5.9271,5.9327,5.9404,5.9441,5.953,5.9578,5.9648,5.9671,5.9619,5.982,5.9754,5.9837,5.9837,5.9879,5.9876,6.0108,5.9912,5.9912,5.9911,5.9911,0,5.8886,5.8994,5.9035,5.9111,5.9232,5.925,5.9369,5.9406,5.9465,5.9549,5.9542,5.9621,5.9646,5.973,5.9748,5.987,5.9892,5.9909,5.9913,5.9909,5.9907,5.994,5.993,5.9918,5.9916,5.9915,5.9914,0,5.904,5.9072,5.9206,5.928,5.9301,5.9386,5.9449,5.9523,5.9552,5.9658,5.9684,5.973,5.9828,5.9858,5.9976,5.9988,6.0131,6.0125,6.0107,6.0107,6.0189,6.018,6.0449,6.0485,6.0267,6.0269,6.0271,0,5.9152,5.9234,5.9317,5.9372,5.9414,5.9504,5.9561,5.9583,5.9643,5.9731,5.9794,5.9891,5.997,6.0127,6.0171,6.0261,6.0257,6.0345,6.0271,6.0265,6.0258,6.0252,6.0261,6.0359,6.0361,6.0363,6.0364,0,5.9346,5.9358,5.9441,5.953,5.9599,5.967,5.9739,5.9785,5.9816,5.9884,5.9985,6.0046,6.0167,6.0263,6.0355,6.0396,6.0386,6.0388,6.0412,6.0409,6.0395,6.0403,6.0145,6.0381,6.038,6.0378,6.0377,6.0377,5.9482,5.9555,5.9625,5.9718,5.9772,5.9837,5.991,5.9949,6.0032,6.0132,6.014,6.0249,6.0319,6.0442,6.0488,6.0573,6.0548,6.0583,6.0591,6.0599,6.0606,6.0382,6.059,6.059,6.0589,6.0589,6.0589,0,5.9676,5.9721,5.9806,5.9902,5.9976,5.996,6.0036,6.0098,6.0194,6.026,6.0338,6.0453,6.0547,6.0599,6.0693,6.0752,6.075,6.0776,6.0771,6.0781,6.0623,6.0593,6.0776,6.0776,6.0776,6.0776,6.0776,6.0776,5.9786,5.9909,5.9929,6.0079,6.0123,6.0229,6.0274,6.0334,6.0386,6.0516,6.0594,6.0627,6.0688,6.0787,6.0873,6.0886,6.092,6.0949,6.096,6.0811,6.0792,6.0774,6.0745,6.0957,6.0957,6.111,6.1111,6.1112]},{"header":{"parameterUnit":"m.s-1","parameterCategory":1,"la1":30.2991,"la2":30.254,"lo1":-89.0895,"lo2":-89.0444,"dy":0.0017,"dx":0.0017,"nx":28,"ny":28,"refTime":"2024-04-03T09:00:00:Z","depth":0,"parameterNumber":3,"parameterNumberName":"V-component_of_WINDS"},"data":[0,0,0,0,0,0,0,0,0,0,0,0,0,0,0,0,0,0,0,0,0,0,0,0,0,0,0,0,0,0,0,0,0,0,0,0,0,0,0,0,0,0,0,0,0,0,0,0,0,0,0,0,0,0,0,0,0,0,-1.2416,-1.2417,0,-1.2492,-1.2493,-1.2494,-1.2545,-1.2545,-1.2546,-1.2546,-1.2622,-1.2623,-1.2625,0,0,0,0,0,0,0,0,0,0,0,0,0,-1.2314,-1.2316,-1.2416,-1.2417,-1.2418,-1.2492,-1.2493,-1.2494,-1.2545,-1.2545,-1.2546,-1.2546,-1.2621,-1.2623,-1.2625,0,0,0,0,0,0,0,0,0,0,0,0,0,-1.2371,-1.2316,-1.2416,-1.2452,-1.2456,-1.2491,-1.2493,-1.2494,-1.2545,-1.2545,-1.2546,-1.2546,-1.262,-1.2623,-1.2625,-1.263,0,0,-1.2633,-1.2634,0,0,0,0,0,0,0,0,-1.2368,-1.2375,-1.2446,-1.245,-1.2454,-1.2509,-1.2485,-1.2539,-1.2544,-1.2511,-1.2546,-1.2547,-1.2584,-1.2589,-1.2602,-1.2633,-1.2636,-1.2633,-1.2635,-1.2636,-1.2637,0,0,0,0,0,0,0,-1.2364,-1.2372,-1.2446,-1.2447,-1.2452,-1.2464,-1.2473,-1.2495,-1.2543,-1.2514,-1.2518,-1.2526,-1.2586,-1.26,-1.2604,-1.2638,-1.2633,-1.2635,-1.2637,-1.2638,-1.2676,-1.2676,0,0,0,0,0,0,-1.2354,-1.2368,-1.2444,-1.2448,-1.2412,-1.2466,-1.2476,-1.2491,-1.2543,-1.2552,-1.2526,-1.2528,-1.2595,-1.2601,-1.2607,-1.2616,-1.2636,-1.2638,-1.264,-1.2677,-1.2676,-1.2676,0,0,0,0,0,0,-1.2352,-1.2361,-1.244,-1.2409,-1.242,-1.2467,-1.2484,-1.2492,-1.2506,-1.2552,-1.2561,-1.2531,-1.2596,-1.2604,-1.2624,-1.2619,-1.2639,-1.2642,-1.2677,-1.2676,-1.2676,-1.2633,0,0,0,0,0,0,-1.2349,-1.2359,-1.2362,-1.2409,-1.2422,-1.2456,-1.2484,-1.2493,-1.251,-1.2515,-1.2559,-1.2567,-1.2597,-1.262,-1.2626,-1.2623,-1.2644,-1.2678,-1.2677,-1.2676,-1.2635,-1.263,-1.2627,0,0,0,0,0,-1.2345,-1.2346,-1.2362,-1.237,-1.2426,-1.2456,-1.2463,-1.2498,-1.251,-1.2512,-1.2542,-1.2566,-1.2619,-1.2622,-1.2629,-1.2626,-1.2678,-1.2677,-1.2676,-1.2636,-1.2631,-1.2627,0,0,0,0,0,0,-1.2296,-1.2353,-1.2371,-1.2387,-1.2416,-1.2464,-1.2469,-1.2491,-1.2517,-1.252,-1.2562,-1.2571,-1.2587,-1.2609,-1.2611,-1.2634,-1.2651,-1.2652,-1.2618,-1.2614,-1.261,-1.2604,-1.2646,0,0,0,0,0,-1.2288,-1.2308,-1.2356,-1.2366,-1.238,-1.2421,-1.2436,-1.246,-1.2492,-1.2504,-1.2535,-1.2564,-1.2588,-1.2602,-1.2626,-1.2638,-1.2649,-1.264,-1.2636,-1.2633,-1.2633,-1.264,-1.2637,-1.2672,-1.2672,-1.2672,0,0,-1.227,-1.2303,-1.2313,-1.2357,-1.2382,-1.2402,-1.2431,-1.2451,-1.2465,-1.2507,-1.2528,-1.2552,-1.2587,-1.2603,-1.2612,-1.2622,-1.2625,-1.2632,-1.2629,-1.263,-1.2639,-1.2636,-1.2633,-1.2671,-1.2671,-1.2671,0,0,-1.2247,-1.2274,-1.2286,-1.2311,-1.2349,-1.2377,-1.238,-1.2424,-1.2442,-1.2464,-1.2496,-1.2514,-1.2553,-1.2577,-1.2594,-1.2581,-1.2603,-1.2588,-1.2567,-1.2574,-1.2572,-1.2569,-1.2564,-1.2562,-1.2587,-1.2587,-1.2587,0,-1.222,-1.225,-1.2288,-1.2306,-1.2324,-1.2364,-1.2375,-1.2397,-1.2441,-1.2453,-1.2464,-1.2514,-1.2541,-1.2563,-1.256,-1.2573,-1.2577,-1.2582,-1.2569,-1.2567,-1.2566,-1.2561,-1.2559,-1.2585,-1.2585,-1.2585,-1.2586,0,-1.2215,-1.2235,-1.224,-1.2282,-1.2301,-1.2315,-1.2355,-1.237,-1.2392,-1.2419,-1.2441,-1.2474,-1.2506,-1.2513,-1.2535,-1.2539,-1.2544,-1.2561,-1.258,-1.2559,-1.2556,-1.2555,-1.2582,-1.2583,-1.2583,-1.2584,0,0,-1.2163,-1.2226,-1.2227,-1.2246,-1.2292,-1.2309,-1.2325,-1.2356,-1.2368,-1.2397,-1.2411,-1.2444,-1.246,-1.248,-1.2506,-1.2512,-1.2499,-1.2529,-1.253,-1.2522,-1.2504,-1.249,-1.2487,-1.2514,-1.2514,-1.2514,-1.2501,0,-1.2146,-1.2177,-1.2212,-1.2231,-1.2251,-1.2289,-1.2303,-1.2332,-1.2358,-1.2378,-1.2406,-1.2428,-1.2449,-1.2461,-1.2469,-1.2499,-1.2496,-1.25,-1.2527,-1.2528,-1.2517,-1.2486,-1.2471,-1.2456,-1.25,-1.25,-1.2499,0,-1.2131,-1.2159,-1.218,-1.2224,-1.2233,-1.2245,-1.2277,-1.2296,-1.2329,-1.2348,-1.237,-1.2397,-1.2416,-1.2433,-1.2459,-1.2461,-1.2474,-1.249,-1.2491,-1.2494,-1.2512,-1.2487,-1.2453,-1.245,-1.2498,-1.2498,-1.2498,0,-1.209,-1.2133,-1.2151,-1.2167,-1.2218,-1.2226,-1.2248,-1.2282,-1.2299,-1.2327,-1.2338,-1.2367,-1.2383,-1.2405,-1.2439,-1.2448,-1.2461,-1.2481,-1.2476,-1.2475,-1.2476,-1.2476,-1.2443,-1.2486,-1.2486,-1.2486,-1.2486,0,-1.2068,-1.2079,-1.2133,-1.2144,-1.2158,-1.2198,-1.221,-1.2236,-1.2266,-1.2282,-1.2317,-1.2332,-1.2377,-1.2397,-1.2424,-1.2441,-1.2448,-1.2463,-1.2469,-1.2459,-1.2457,-1.2468,-1.2469,-1.2486,-1.2486,-1.2486,-1.2486,0,-1.2024,-1.2061,-1.2083,-1.2131,-1.2143,-1.2151,-1.2191,-1.2203,-1.2231,-1.2251,-1.2258,-1.2302,-1.2327,-1.2364,-1.24,-1.2418,-1.2431,-1.2442,-1.2419,-1.2423,-1.2416,-1.2416,-1.2388,-1.2386,-1.2431,-1.2431,-1.243,0,-1.2007,-1.2016,-1.2065,-1.2079,-1.2099,-1.2121,-1.2139,-1.2179,-1.2195,-1.2235,-1.2242,-1.227,-1.2294,-1.2333,-1.2367,-1.2395,-1.2407,-1.2395,-1.2411,-1.24,-1.2406,-1.2405,-1.2406,-1.2391,-1.2391,-1.239,-1.239,0,-1.1972,-1.199,-1.2014,-1.2045,-1.2065,-1.209,-1.2118,-1.2127,-1.2173,-1.219,-1.2216,-1.2235,-1.2272,-1.2299,-1.2332,-1.2354,-1.2379,-1.2384,-1.2385,-1.2374,-1.236,-1.2367,-1.2408,-1.2385,-1.2385,-1.2385,-1.2386,-1.2386,-1.1941,-1.1951,-1.1987,-1.2013,-1.2038,-1.2063,-1.2076,-1.2106,-1.2129,-1.2162,-1.2185,-1.221,-1.2244,-1.229,-1.2311,-1.2331,-1.2342,-1.2342,-1.2342,-1.2342,-1.2338,-1.2357,-1.2337,-1.2338,-1.2338,-1.2338,-1.2338,0,-1.1908,-1.1933,-1.1956,-1.1994,-1.2014,-1.2036,-1.2068,-1.2083,-1.2105,-1.2135,-1.2158,-1.2188,-1.2215,-1.2252,-1.2281,-1.229,-1.2302,-1.2296,-1.2296,-1.23,-1.2327,-1.2323,-1.2286,-1.2286,-1.2286,-1.2286,-1.2286,-1.2286,-1.1893,-1.1911,-1.1934,-1.1965,-1.199,-1.2015,-1.2031,-1.2054,-1.2078,-1.211,-1.2133,-1.2157,-1.219,-1.2222,-1.2247,-1.2257,-1.2266,-1.2256,-1.227,-1.2294,-1.2298,-1.2303,-1.23,-1.2258,-1.2258,-1.2242,-1.2241,-1.2241]}]]